Location: Cernusco
(45.5167°N, 9.3167°E)
Time: 15:34:42
(UTC+00:00)

Daily predictions for brighter satellites

Satellite Brightness Start Highest point End
(mag) Time Altitude Azimuth Time Altitude Azimuth Time Altitude Azimuth
NOSS 3-2 (C) 4.2 15:57:07 10° NW 16:04:41 87° NE 16:13:07 10° SE
Tsikada Rocket 4.2 16:00:29 10° S 16:06:55 84° W 16:13:21 10° N
Shenzhou-11 Module 4.1 16:10:01 10° SSW 16:11:49 16° SSE 16:13:37 10° ESE
Cosmos 1340 3.0 16:08:13 10° N 16:11:51 42° ENE 16:15:27 10° SSE
Cosmos 1782 3.0 16:08:26 10° S 16:12:20 53° E 16:16:14 10° NNE
Cosmos 1315 Rocket 3.3 16:10:55 10° SSE 16:14:37 40° E 16:18:24 10° NNE
NOSS 3-4 (A) 3.5 16:14:20 10° SSW 16:20:15 65° ESE 16:26:31 10° NE
NOSS 3-4 (C) 3.5 16:14:27 10° SSW 16:20:22 64° ESE 16:26:38 10° NE
USA 267 3.7 16:15:12 10° SE 16:21:43 69° SW 16:28:15 10° NW
Cosmos 1346 Rocket 2.9 16:19:01 10° N 16:22:54 54° ENE 16:26:48 10° SSE
Cosmos 2333 4.4 16:17:57 10° S 16:23:29 54° ESE 16:29:06 10° NE
BREEZE-M DEB (TANK) 2.9 16:16:36 10° WNW 16:24:37 58° N 16:27:30 10° E
ATLAS 3B R/B 2.7 16:19:09 10° NW 16:25:52 73° NE 16:32:46 10° SE
CZ-4B R/B 3.9 16:21:29 10° S 16:26:42 58° WSW 16:32:00 10° NNW
Cosmos 1400 Rocket 3.7 16:23:57 10° SSW 16:27:58 53° WNW 16:31:59 10° N
Cosmos 371 Rocket 3.4 16:23:04 10° NNW 16:28:00 87° WSW 16:32:53 10° SSE
Cosmos 2322 3.7 16:23:27 10° SSW 16:29:07 70° ESE 16:34:48 10° NNE
Cosmos 1733 Rocket 3.8 16:26:15 10° NNE 16:30:05 29° ENE 16:33:55 10° SE
Iridium 82 4.4 16:27:36 10° S 16:31:10 78° E 16:34:42 10° N
Cosmos 1269 Rocket 4.0 16:28:48 10° SSW 16:34:05 77° ESE 16:39:25 10° NNE
Cosmos 1869 Rocket 3.7 16:30:39 10° N 16:35:05 80° W 16:39:30 10° S
CZ-4B R/B 4.0 16:32:22 10° NNW 16:35:06 21° WNW 16:37:49 10° WSW
YAOGAN 6 3.9 16:34:39 10° ESE 16:37:10 19° ENE 16:39:42 10° NNE
IRS-1C Rocket 4.1 16:34:53 10° SSE 16:40:09 84° ENE 16:45:28 10° NNW
Cosmos 494 Rocket 4.2 16:35:25 10° SSW 16:40:41 79° WNW 16:46:00 10° NNE
RESURS DK-1 3.3 16:37:18 10° S 16:40:52 29° ESE 16:43:38 15° NE
ISS -2.7 16:38:29 10° NW 16:41:32 31° N 16:43:34 17° ENE
Cosmos 2278 Rocket 2.8 16:36:29 10° NNW 16:41:37 34° NE 16:46:42 10° ESE
Meteor 1-11 Rocket 4.2 16:36:13 10° N 16:41:54 43° ENE 16:47:33 10° SE
Cosmos 1689 Rocket 4.5 16:39:49 10° NNW 16:42:21 24° WNW 16:44:50 10° SW
COBE Rocket 3.8 16:40:52 10° NNE 16:45:29 61° E 16:50:05 10° S
Okean O Rocket 3.6 16:42:50 10° SSW 16:46:45 33° W 16:50:42 10° NNW
Meteor 1-27 Rocket 4.2 16:44:52 10° SSE 16:50:04 38° E 16:55:24 10° NNE
Cosmos 2360 Rocket 3.0 16:44:54 10° SW 16:50:24 51° WNW 16:55:57 10° NNE
ATLAS 5 CENTAUR R/B 2.2 16:48:54 10° S 16:50:58 21° SE 16:51:26 19° ESE
PSLV R/B 4.5 16:49:41 10° N 16:53:50 61° WNW 16:57:54 10° SSW
Cosmos 2333 Rocket 2.2 16:48:29 10° SSW 16:54:09 67° ESE 16:59:53 10° NNE
Okean-O 2.6 16:51:08 10° SSE 16:55:30 60° ENE 16:59:53 10° N
AQUARIUS 4.2 16:52:54 10° SSE 16:57:23 82° WSW 17:01:55 10° NNW
Cosmos 2251 Rocket 4.1 16:52:52 10° SSE 16:57:41 36° ESE 17:01:20 16° NE
ATLAS 2AS CENTAUR R/B 3.4 16:50:09 10° SW 16:58:05 65° NW 17:06:03 10° NE
Feng Yun 1-1 Rocket 4.4 16:53:16 10° S 16:58:40 76° WSW 17:04:05 10° NNW
Cosmos 1302 Rocket 4.0 16:53:43 10° NNW 16:59:02 87° ENE 17:04:16 10° SSE
BREEZE-M R/B 3.3 16:53:46 10° W 16:59:49 56° NNW 17:01:47 23° NE
NOSS 0 Rocket 4.5 16:54:40 10° S 17:00:19 39° ESE 17:04:37 17° NE
Cosmos 2279 Rocket 4.2 16:57:34 10° NNW 17:03:49 76° W 17:10:04 10° S
Cosmos 1862 Rocket 3.7 17:00:11 10° SSE 17:04:21 49° E 17:08:35 10° NNE
CZ-4 R/B 1.8 17:05:19 10° SE 17:08:57 36° ENE 17:12:33 10° N
Cosmos 2237 Rocket 2.9 17:04:03 10° SSE 17:09:06 34° ESE 17:11:43 23° ENE
Exosat Rocket 3.7 17:05:30 10° S 17:10:58 56° ESE 17:14:31 18° NE
Cosmos 1812 2.7 17:08:40 10° S 17:12:28 61° E 17:15:32 15° NNE
Cosmos 1536 3.1 17:09:56 10° N 17:13:49 44° ENE 17:17:39 10° SSE
SL-8 R/B 4.3 17:09:14 10° WNW 17:13:57 56° SSW 17:18:40 10° SE
Cosmos 2322 Rocket 4.3 17:09:54 10° W 17:14:05 21° NW 17:18:18 10° N
SeaSat 1 3.8 17:17:12 20° NE 17:17:12 20° NE 17:20:16 10° N
SL-16 R/B 4.4 17:15:03 10° W 17:18:50 18° NW 17:22:38 10° N
CZ-4 R/B 4.4 17:19:34 10° SSE 17:23:40 61° ENE 17:27:47 10° N
Nadezhda 4 Rocket 3.9 17:18:15 10° S 17:24:33 76° E 17:30:54 10° N
Envisat 3.1 17:23:22 10° S 17:28:27 77° WSW 17:33:34 10° NNW
Cosmos 2219 Rocket 2.4 17:23:43 10° SW 17:29:18 70° WNW 17:34:06 15° NNE
USA 215 4.2 17:25:50 19° NE 17:29:48 37° NNW 17:35:41 10° WNW
Lacrosse 5 rocket 1.5 17:26:58 10° SSW 17:31:09 54° SE 17:31:54 46° E
STARLINK-67 3.9 17:30:01 10° W 17:32:26 32° NNW 17:32:26 32° NNW
ERBS 3.4 17:33:58 10° WNW 17:37:10 43° SW 17:38:53 23° SSE
CENTAUR R/B 4.5 17:30:58 10° NW 17:38:28 41° WSW 17:46:25 10° S
COSMO-SKYMED 1 2.4 17:35:38 21° NNE 17:38:32 85° ESE 17:42:53 10° SSW
Cosmos 1980 3.7 17:33:11 10° S 17:38:43 61° ESE 17:41:05 34° NE
Cosmos 1908 Rocket 3.5 17:34:53 10° N 17:39:17 61° E 17:43:36 10° SSE
Cosmos 1500 4.0 17:38:16 10° NNW 17:41:57 51° W 17:45:35 10° S
SL-4 R/B 1.9 17:38:31 10° WSW 17:42:18 71° NNW 17:42:51 60° NNE
STARLINK-46 4.0 17:43:11 10° WSW 17:44:58 36° WSW 17:44:58 36° WSW
Shenzhou-11 Module 3.6 17:44:00 10° WSW 17:45:40 28° SW 17:45:40 28° SW
COSMOS 2428 3.3 17:41:07 10° SW 17:46:39 54° WNW 17:51:04 16° NNE
Cosmos 1992 Rocket 3.9 17:42:06 10° NNW 17:47:22 88° ENE 17:52:36 10° SSE
Cosmos 2026 Rocket 4.0 17:41:55 10° SSE 17:47:46 52° E 17:50:36 29° NNE
YAOGAN 1 2.4 17:44:55 10° SSE 17:49:14 82° ENE 17:53:36 10° NNW
Cosmos 292 Rocket 3.9 17:50:13 10° NNW 17:54:26 53° NNE 17:54:26 53° NNE
CSL-04 Rocket 3.5 17:49:54 10° SSE 17:55:10 88° ENE 18:00:30 10° NNW
Cosmos 1943 Rocket 4.2 17:51:55 10° N 17:53:09 14° NNE 17:53:09 14° NNE
USA 116 4.4 17:58:58 25° NNE 18:02:15 88° WNW 18:07:31 10° SSW
CSL-04 Debris 4.3 17:59:19 10° S 18:04:47 77° WSW 18:10:16 10° NNW
Cosmos 1627 Rocket 4.3 18:00:29 10° S 18:06:35 78° E 18:10:30 24° NNE
YAOGAN 6 4.5 18:07:21 10° SSW 18:10:28 30° W 18:13:39 10° NNW
DMSP B5D1-3 4.5 18:16:19 73° SSE 18:16:19 73° SSE 18:21:01 10° SSW
BREEZE-M DEB (TANK) 3.5 18:13:20 10° W 18:15:45 35° W 18:15:45 35° W
ISS -1.4 18:15:11 10° WNW 18:16:28 22° WNW 18:16:28 22° WNW
RESURS DK-1 4.0 18:15:15 10° WSW 18:18:52 29° NW 18:19:34 27° NW
NOAA 11 4.3 18:16:40 10° S 18:22:05 74° WSW 18:27:35 10° NNW
Cosmos 2278 Rocket 3.3 18:20:29 10° NW 18:25:48 43° WSW 18:31:05 10° S
Cosmos 1092 Rocket 4.5 18:20:50 10° SSW 18:27:04 59° WNW 18:33:16 10° N
SL-16 R/B 3.5 18:32:56 10° SSW 18:35:33 28° S 18:35:33 28° S
Cosmos 2333 Rocket 4.1 18:34:18 10° WSW 18:38:56 24° NW 18:41:54 17° N
Cosmos 2369 Rocket 4.4 18:38:05 10° N 18:38:40 13° N 18:38:40 13° N
CZ-4 R/B 4.0 18:41:17 10° SW 18:44:06 19° W 18:46:54 10° NW
ATLAS 2AS CENTAUR R/B 4.5 18:44:07 10° WNW 18:50:40 27° NNW 18:53:29 22° N
Cosmos 2237 Rocket 3.2 18:47:40 10° SW 18:53:03 41° NW 18:53:36 40° NW
SeaSat 1 4.4 18:57:00 22° NNW 18:57:00 22° NNW 18:58:41 10° NNW
Lacrosse 5 rocket 4.3 19:06:46 10° W 19:07:34 14° W 19:07:34 14° W
USA 215 4.5 19:13:11 31° NNW 19:13:11 31° NNW 19:17:31 10° NW
